Weather History for KTVR - February, 2013

Change the Weather History Date:

Monday, February 18, 2013

  Actual Average Record
Temperature  
Mean Temperature 57 °F 51 °F  
Max Temperature 69 °F 61 °F 84 °F (2009)
Min Temperature 45 °F 40 °F 20 °F (1958)
Degree Days  
Heating Degree Days 8 15  
Month to date heating degree days 243 299  
Since 1 July heating degree days 1630 1843  
Cooling Degree Days 0 0  
Month to date cooling degree days 0 0  
Year to date cooling degree days 18 3  
Growing Degree Days 6 (Base 50)    
Moisture  
Dew Point 49 °F    
Average Humidity 71    
Maximum Humidity 93    
Minimum Humidity 49    
Precipitation  
Precipitation 0.79 in 0.20 in 1.47 in (2012)
Month to date precipitation 6.52 3.43  
Year to date precipitation 19.80 8.50  
Sea Level Pressure  
Sea Level Pressure 30.02 in    
Wind  
Wind Speed 15 mph (South)    
Max Wind Speed 30 mph    
Max Gust Speed 43 mph    
Visibility 8 miles    
Events Rain , Thunderstorm    
T = Trace of Precipitation, MM = Missing Value Source: NWS Daily Summary

Daily Weather History Graph

Daily Weather History Graph

Search for Another Location

Airport or City:

Trip Planner

Search our weather history database for the weather conditions in past years. The results will help you decide how hot, cold, wet, or windy it might be!

Date:

Astronomy

Feb. 18, 2013 Rise Set
Actual Time 6:43 AM CST 5:52 PM CST
Civil Twilight 6:18 AM CST 6:17 PM CST
Nautical Twilight 5:49 AM CST 6:46 PM CST
Astronomical Twilight 5:21 AM CST 7:15 PM CST
Moon 11:48 AM CST (2/18) 1:14 AM CST (2/18)
Length of Visible Light 11h 59m
Length of Day
11h 09m
First Quarter, 58% of the Moon is Illuminated
Feb 18
First Quarter
Feb 25
Full
Mar 4
Last Quarter
Mar 11
New
Mar 19
First Quarter

Hourly Weather History & Observations

Time (CST) Temp. Windchill Dew Point Humidity Pressure Visibility Wind Dir Wind Speed Gust Speed Precip Events Conditions
12:53 AM 46.9 °F - 37.0 °F 68% 30.20 in 10.0 mi South 8.1 mph - N/A   Clear
1:53 AM 46.0 °F 41.4 °F 37.0 °F 71% 30.19 in 10.0 mi SSE 9.2 mph - N/A   Clear
2:53 AM 46.0 °F 41.9 °F 37.9 °F 73% 30.18 in 10.0 mi SSE 8.1 mph - N/A   Clear
3:53 AM 45.0 °F 40.6 °F 37.0 °F 74% 30.16 in 10.0 mi SSE 8.1 mph - N/A   Clear
4:53 AM 45.0 °F 40.1 °F 37.0 °F 74% 30.17 in 10.0 mi SSE 9.2 mph - N/A   Partly Cloudy
5:53 AM 46.0 °F 41.4 °F 37.9 °F 73% 30.17 in 10.0 mi SSE 9.2 mph - N/A   Partly Cloudy
6:53 AM 46.0 °F 41.4 °F 39.0 °F 76% 30.15 in 10.0 mi SSE 9.2 mph - N/A   Mostly Cloudy
7:53 AM 48.9 °F - 41.0 °F 74% 30.16 in 10.0 mi SSE 8.1 mph - 0.00 in Rain Light Rain
8:53 AM 52.0 °F - 43.0 °F 71% 30.16 in 10.0 mi SSE 13.8 mph - 0.00 in   Overcast
9:53 AM 55.0 °F - 45.0 °F 69% 30.16 in 10.0 mi SSE 10.4 mph - 0.00 in   Overcast
10:53 AM 57.9 °F - 46.0 °F 65% 30.12 in 10.0 mi SSE 18.4 mph - 0.00 in   Overcast
11:53 AM 63.0 °F - 48.0 °F 58% 30.08 in 10.0 mi SSE 17.3 mph 26.5 mph N/A   Overcast
12:53 PM 68.0 °F - 50.0 °F 52% 30.02 in 10.0 mi South 21.9 mph 34.5 mph N/A   Overcast
1:53 PM 68.0 °F - 48.9 °F 50% 29.99 in 10.0 mi South 28.8 mph 36.8 mph N/A   Overcast
2:53 PM 68.0 °F - 50.0 °F 52% 29.97 in 10.0 mi South 21.9 mph 35.7 mph N/A   Overcast
3:53 PM 66.0 °F - 50.0 °F 56% 29.96 in 10.0 mi South 21.9 mph 31.1 mph N/A   Overcast
4:53 PM 64.0 °F - 51.1 °F 63% 29.94 in 10.0 mi South 24.2 mph 39.1 mph N/A   Mostly Cloudy
5:53 PM 61.0 °F - 52.0 °F 72% 29.96 in 10.0 mi South 21.9 mph 35.7 mph 0.00 in Rain Light Rain
6:53 PM 57.0 °F - 53.1 °F 87% 29.94 in 10.0 mi SSE 20.7 mph 29.9 mph 0.01 in Rain Light Rain
7:53 PM 57.0 °F - 53.1 °F 87% 29.93 in 10.0 mi SSE 23.0 mph 32.2 mph 0.00 in   Overcast
8:53 PM 57.0 °F - 54.0 °F 89% 29.91 in 9.0 mi SSE 18.4 mph 26.5 mph 0.06 in Rain Rain
9:18 PM 57.2 °F - 55.4 °F 94% 29.89 in 3.0 mi South 17.3 mph 24.2 mph 0.08 in Rain Heavy Rain
9:39 PM 57.2 °F - 55.4 °F 94% 29.94 in 4.0 mi WNW 12.7 mph 20.7 mph 0.17 in Rain , Thunderstorm Light Thunderstorms and Rain
9:45 PM 57.2 °F - 55.4 °F 94% 29.92 in 1.8 mi Variable 6.9 mph 23.0 mph 0.32 in Rain , Thunderstorm Heavy Thunderstorms and Rain
9:53 PM 57.0 °F - 55.0 °F 93% 29.93 in 2.0 mi Variable 3.5 mph - 0.35 in Rain Light Rain
9:55 PM 57.2 °F - 55.4 °F 94% 29.91 in 4.0 mi South 4.6 mph - 0.00 in Rain Light Rain
10:02 PM 57.2 °F - 53.6 °F 88% 29.91 in 10.0 mi South 8.1 mph - 0.00 in   Scattered Clouds
10:45 PM 59.0 °F - 55.4 °F 88% 29.98 in 10.0 mi NW 15.0 mph 21.9 mph 0.00 in Rain , Thunderstorm Light Rain
10:56 PM 57.2 °F - 53.6 °F 88% 29.97 in 1.8 mi NW 19.6 mph 27.6 mph 0.13 in Rain Heavy Rain
10:59 PM 57.2 °F - 53.6 °F 88% 29.97 in 1.5 mi NW 8.1 mph 27.6 mph 0.19 in Rain , Thunderstorm Heavy Rain
11:01 PM 57.2 °F - 55.4 °F 94% 29.97 in 1.2 mi NW 11.5 mph 27.6 mph 0.21 in Rain , Thunderstorm Heavy Rain
11:07 PM 55.4 °F - 55.4 °F 100% 29.97 in 2.0 mi WNW 8.1 mph 19.6 mph 0.23 in Rain , Thunderstorm Heavy Thunderstorms and Rain
11:10 PM 55.4 °F - 55.4 °F 100% 29.97 in 3.0 mi NW 8.1 mph 19.6 mph 0.23 in Rain , Thunderstorm Thunderstorms and Rain
11:40 PM 55.4 °F - 53.6 °F 94% 29.95 in 10.0 mi WSW 4.6 mph - 0.30 in   Overcast
11:53 PM 57.0 °F - 54.0 °F 89% 29.98 in 10.0 mi WSW 4.6 mph - 0.30 in   Overcast